AirNav   Air Wisconsin pilot careers
 
 1756 users online  

17M Magee Municipal Airport
Magee, Mississippi, USA

GOING TO MAGEE?


FAA INFORMATION EFFECTIVE 20 JUNE 2019

Location

FAA Identifier: 17M
Lat/Long: 31-51-45.9700N / 089-48-02.2350W
31-51.766167N / 089-48.037250W
31.8627694 / -89.8006208
(estimated)
Elevation: 555 ft. / 169.2 m (surveyed)
Variation: 01W (2015)
From city: 3 miles W of MAGEE, MS
Time zone: UTC -5 (UTC -6 during Standard Time)
Zip code: 39111

Airport Operations

Airport use: Open to the public
Control tower: no
ARTCC: MEMPHIS CENTER
FSS: GREENWOOD FLIGHT SERVICE STATION
NOTAMs facility: GWO (NOTAM-D service available)
Attendance: CONTINUOUS
Wind indicator: lighted
Segmented circle: yes
Lights: ACTVT MIRL RWY 18/36 - CTAF.
Beacon: white-green (lighted land airport)
Operates sunset to sunrise.

Airport Communications

CTAF/UNICOM: 122.8
  • APCH/DEP SVC PROVIDED BY MEMPHIS ARTCC ON FREQS 125.975/307.275 (MERIDIAN RCAG).

Nearby radio navigation aids

VOR radial/distance  VOR name  Freq  Var
LBYr313/35.6EATON VORTAC110.6005E
MHZr157/37.5MAGNOLIA VORTAC113.2001W

Airport Services

Fuel available: 100LL
FUEL AVAILABLE 24/7 WITH CREDIT CARD.
Parking: tiedowns
Airframe service: NONE
Powerplant service: NONE
Bottled oxygen: NONE
Bulk oxygen: NONE

Runway Information

Runway 18/36

Dimensions: 3108 x 60 ft. / 947 x 18 m
Surface: asphalt, in fair condition
Weight bearing capacity: 
Single wheel: 19.0
Runway edge lights: medium intensity
RUNWAY 18  RUNWAY 36
Latitude: 31-52.022500N31-51.509833N
Longitude: 089-48.040833W089-48.033667W
Elevation: 553.1 ft.546.1 ft.
Traffic pattern: leftleft
Runway heading: 180 magnetic, 179 true000 magnetic, 359 true
Markings: basic, in fair conditionbasic, in fair condition
Visual slope indicator: 2-light PAPI on left (3.00 degrees glide path)
Touchdown point: yes, no lightsyes, no lights
Obstructions: 50 ft. trees, 1250 ft. from runway, 250 ft. left of centerline, 21:1 slope to clear80 ft. trees, 2500 ft. from runway, 28:1 slope to clear

Airport Ownership and Management from official FAA records

Ownership: Publicly-owned
Owner: CITY OF MAGEE
123 N. MAIN ST.
MAGEE, MS 39111
Phone 601-849-3344
Manager: ASHLEY STEELE
111 PRINE DR.
MAGEE, MS 39111
Phone 601-382-5752

Airport Operational Statistics

Aircraft based on the field: 9
Single engine airplanes: 9
    
Aircraft operations: avg 21/day *
59% transient general aviation
37% local general aviation
4% military
* for 12-month period ending 02 May 2019

Additional Remarks

RY 36 4 FT DEEP DITCH 250 FT FROM THR.
FOR CD CTC MEMPHIS ARTCC AT 901-368-8453.

Instrument Procedures

NOTE: All procedures below are presented as PDF files. If you need a reader for these files, you should download the free Adobe Reader.

NOT FOR NAVIGATION. Please procure official charts for flight.
FAA instrument procedures published for use from 20 June 2019 at 0901Z to 19 July 2019 at 0900Z.

 
IAPs - Instrument Approach Procedures
RNAV (GPS) RWY 18 **CHANGED**   download (177KB)
RNAV (GPS) RWY 36 **CHANGED**   download (175KB)
NOTE: Special Take-Off Minimums/Departure Procedures apply   download

Other nearby airports with instrument procedures:

M43 - Prentiss-Jefferson Davis County Airport (17 nm S)
M11 - Copiah County Airport (29 nm W)
KJAN - Jackson-Medgar Wiley Evers International Airport (30 nm NW)
KPIB - Hattiesburg-Laurel Regional Airport (34 nm SE)
0R0 - Columbia-Marion County Airport (34 nm S)
 
Loc | Ops | Rwys | IFR | FBO | Links
Com | Nav | Svcs | Stats | Notes
Area around 17M (Magee Municipal Airport)
 
Road maps at: MapQuest Bing Google
 
Aerial photo
WARNING: Photo may not be current or correct
Aerial photo of 17M (Magee Municipal Airport)
Photo by Winnfort Myles
Photo taken 17-Oct-2009

Do you have a better or more recent aerial photo of Magee Municipal Airport that you would like to share? If so, please send us your photo.

 
Sectional chart

 
Airport distance calculator
Flying to Magee Municipal Airport? Find the distance to fly.

From to 17M

Sunrise and sunset
Times for 16-Jul-2019
 Local
(UTC-5)
 Zulu
(UTC)
Morning civil twilight05:3810:38
Sunrise06:0611:06
Sunset20:0501:05
Evening civil twilight20:3201:32

Current date and time
Zulu (UTC)  16-Jul-2019 18:39:50
Local (UTC-5)  16-Jul-2019 13:39:50
 
METAR
KJAN 
31nm NW 
161754Z 19015G21KT 10SM FEW033 SCT040 BKN047 32/23 A3008 RMK AO2 SLP181 T03170228 10322 20256 58004
KLUL 
34nm SE 
161815Z AUTO 18011KT 10SM SCT034 BKN043 BKN060 32/23 A3011 RMK A02 T03240234
KPIB 
34nm SE 
161756Z AUTO 20010KT 160V240 10SM SCT038 BKN047 32/24 A3013 RMK AO2 SLP199 T03170244 10322 20261 57005
K1R7 
35nm SW 
161615Z AUTO 04011G17KT 10SM FEW024 SCT031 BKN060 31/24 A3013 RMK AO2
KHKS 
35nm NW 
161753Z 21010KT 10SM FEW035 SCT045 SCT060 32/24 A3008 RMK AO2 SLP178 T03220244 10322 20250 58004
KMBO 
38nm NW 
161815Z AUTO 21009KT 10SM SCT035 SCT045 31/25 A3007 RMK AO2 LTG DSNT N PWINO
KJVW 
41nm NW 
161815Z AUTO 21011G16KT 10SM 33/26 A3006 RMK AO2 LTG DSNT N
KHBG 
46nm SE 
161753Z AUTO 21009KT 10SM SCT042 32/23 A3012 RMK AO2 SLP197 T03220233 10328 20256 58002
TAF
KJAN 
31nm NW 
161722Z 1618/1718 20009KT P6SM VCSH FEW023 SCT029 BKN035 FM161900 19012G20KT P6SM SHRA VCTS BKN040CB FM162200 18010KT P6SM SCT040 FM170900 18005KT P6SM OVC015
KPIB 
34nm SE 
161722Z 1618/1718 VRB05KT P6SM VCSH SCT026 BKN035 BKN050 FM170900 00000KT 5SM BR BKN250 FM171400 25004KT P6SM FEW250
KHKS 
35nm NW 
161722Z 1618/1718 21012G16KT P6SM VCSH SCT027 BKN035 BKN045 FM161900 19012G20KT P6SM SHRA VCTS BKN040CB FM162200 18010KT P6SM SCT040 FM170900 18005KT P6SM OVC015
NOTAMs
Click for the latest NOTAMs
NOTAMs are issued by the DoD/FAA and will open in a separate window not controlled by AirNav.

 

 
 

FBO, Fuel Providers, and Aircraft Ground Support

  
 Business Name 
 
 Contact 
 
 Services / Description 
 
Fuel Prices
 
Comments
  
Magee Municipal Airport 601-849-3571
no information available

If you are affiliated with Magee Municipal Airport and would like to show here your services, contact info, web link, logo, and more, click here
100LL
SS $4.75 
 Updated 09-Oct-2017
 
   1 read write
SS=Self service
Update Fuel Prices
 

Would you like to see your business listed on this page?

 If your business provides an interesting product or service to pilots, flight crews, aircraft, or users of the Magee Municipal Airport, you should consider listing it here.  To start the listing process, click on the button below
 
Add a business
 

Other Pages about Magee Municipal Airport

Update a link
 
Copyright © AirNav, LLC. All rights reserved. Privacy Policy  Contact